When you browse on this site, cookies collect data to enhance your experience and personalize the content and advertising you see.
Visit our Privacy Policy to learn more. By continuing to use the site, you agree to this use of cookies and data.
  • In United Kingdom
  • List of Countries
  • For 7 days
  • Water Temperature
  • Satellite Maps
  • Weather Map
  • Weather Widgets
  • user-avatar
    Login

    Hourly Weather Leribe

    Today, 15 July, Monday

    Time Temperature Precipitation Wind Pressure Humidity
    00:00 +8°C° 0 mm 1 mps 632 mmHg 45%
    01:00 +7°C° 0 mm 1 mps 632 mmHg 46%
    02:00 +7°C° 0 mm 1 mps 631 mmHg 48%
    03:00 +6°C° 0 mm 1 mps 631 mmHg 49%
    04:00 +6°C° 0 mm 1 mps 631 mmHg 51%
    05:00 +6°C° 0 mm 1 mps 631 mmHg 53%
    06:00 +7°C° 0 mm 1 mps 632 mmHg 49%
    07:00 +8°C° 0 mm 1 mps 633 mmHg 44%
    08:00 +10°C° 0 mm 1 mps 634 mmHg 41%
    09:00 +13°C° 0 mm 1 mps 635 mmHg 35%
    10:00 +15°C° 0 mm 1 mps 636 mmHg 28%
    11:00 +19°C° 0 mm 1 mps 636 mmHg 21%
    12:00 +19°C° 0 mm 1 mps 636 mmHg 20%
    13:00 +19°C° 0 mm 2 mps 635 mmHg 19%
    14:00 +20°C° 0 mm 2 mps 635 mmHg 18%
    15:00 +18°C° 0 mm 2 mps 635 mmHg 20%
    16:00 +17°C° 0 mm 2 mps 634 mmHg 22%
    17:00 +16°C° 0 mm 1 mps 633 mmHg 25%
    18:00 +14°C° 0 mm 1 mps 633 mmHg 28%
    19:00 +12°C° 0 mm 1 mps 633 mmHg 31%
    20:00 +10°C° 0 mm 1 mps 632 mmHg 35%
    21:00 +9°C° 0 mm 1 mps 632 mmHg 38%
    22:00 +8°C° 0 mm 1 mps 632 mmHg 41%
    23:00 +8°C° 0 mm 1 mps 632 mmHg 45%

    Tomorrow, 16 July, Tuesday

    Time Temperature Precipitation Wind Pressure Humidity
    00:00 +8°C° 0 mm 1 mps 632 mmHg 45%
    01:00 +7°C° 0 mm 1 mps 632 mmHg 46%
    02:00 +7°C° 0 mm 1 mps 632 mmHg 46%
    03:00 +6°C° 0 mm 1 mps 632 mmHg 48%
    04:00 +6°C° 0 mm 1 mps 631 mmHg 51%
    05:00 +6°C° 0 mm 1 mps 631 mmHg 53%
    06:00 +7°C° 0 mm 1 mps 632 mmHg 48%
    07:00 +8°C° 0 mm 1 mps 633 mmHg 44%
    08:00 +9°C° 0 mm 1 mps 633 mmHg 39%
    09:00 +12°C° 0 mm 1 mps 634 mmHg 33%
    10:00 +15°C° 0 mm 1 mps 635 mmHg 26%
    11:00 +18°C° 0 mm 2 mps 636 mmHg 19%
    12:00 +18°C° 0 mm 2 mps 636 mmHg 17%
    13:00 +19°C° 0 mm 3 mps 635 mmHg 15%
    14:00 +20°C° 0 mm 3 mps 635 mmHg 13%
    15:00 +18°C° 0 mm 3 mps 634 mmHg 15%
    16:00 +17°C° 0 mm 3 mps 634 mmHg 17%
    17:00 +16°C° 0 mm 2 mps 633 mmHg 18%
    18:00 +13°C° 0 mm 2 mps 633 mmHg 22%
    19:00 +11°C° 0 mm 1 mps 632 mmHg 25%
    20:00 +7°C° 0 mm 0 mps 632 mmHg 28%
    21:00 +8°C° 0 mm 1 mps 632 mmHg 30%
    22:00 +8°C° 0 mm 1 mps 632 mmHg 32%
    23:00 +8°C° 0 mm 1 mps 632 mmHg 33%

    Day after tomorrow, 17 July, Wednesday

    Time Temperature Precipitation Wind Pressure Humidity
    00:00 +7°C° 0 mm 1 mps 632 mmHg 33%
    01:00 +6°C° 0 mm 1 mps 631 mmHg 33%
    02:00 +6°C° 0 mm 1 mps 631 mmHg 32%
    03:00 +5°C° 0 mm 1 mps 631 mmHg 36%
    04:00 +5°C° 0 mm 1 mps 631 mmHg 40%
    05:00 +5°C° 0 mm 1 mps 631 mmHg 44%
    06:00 +5°C° 0 mm 0 mps 632 mmHg 41%
    07:00 +6°C° 0 mm 0 mps 632 mmHg 39%
    08:00 +7°C° 0 mm 0 mps 633 mmHg 37%
    09:00 +11°C° 0 mm 1 mps 634 mmHg 32%
    10:00 +14°C° 0 mm 1 mps 635 mmHg 27%
    11:00 +16°C° 0 mm 1 mps 636 mmHg 22%
    12:00 +17°C° 0 mm 2 mps 635 mmHg 21%
    13:00 +18°C° 0 mm 3 mps 635 mmHg 20%
    14:00 +19°C° 0 mm 4 mps 634 mmHg 18%
    15:00 +17°C° 0 mm 3 mps 634 mmHg 20%
    16:00 +16°C° 0 mm 3 mps 633 mmHg 22%
    17:00 +15°C° 0 mm 2 mps 633 mmHg 24%
    18:00 +13°C° 0 mm 2 mps 632 mmHg 31%
    19:00 +11°C° 0 mm 1 mps 632 mmHg 36%
    20:00 +9°C° 0 mm 1 mps 631 mmHg 42%
    21:00 +8°C° 0 mm 1 mps 631 mmHg 43%
    22:00 +8°C° 0 mm 1 mps 631 mmHg 44%
    23:00 +8°C° 0 mm 1 mps 631 mmHg 46%

    18 July, Thursday

    Time Temperature Precipitation Wind Pressure Humidity
    00:00 +7°C° 0 mm 1 mps 631 mmHg 47%
    01:00 +7°C° 0 mm 1 mps 631 mmHg 48%
    02:00 +6°C° 0 mm 1 mps 630 mmHg 49%
    03:00 +6°C° 0 mm 1 mps 630 mmHg 51%
    04:00 +5°C° 0 mm 0 mps 630 mmHg 53%
    05:00 +4°C° 0 mm 0 mps 630 mmHg 54%
    06:00 +5°C° 0 mm 0 mps 631 mmHg 50%
    07:00 +7°C° 0 mm 0 mps 632 mmHg 45%
    08:00 +8°C° 0 mm 0 mps 632 mmHg 40%
    09:00 +11°C° 0 mm 0 mps 633 mmHg 33%
    10:00 +15°C° 0 mm 1 mps 634 mmHg 27%
    11:00 +19°C° 0 mm 1 mps 635 mmHg 20%
    12:00 +20°C° 0 mm 1 mps 634 mmHg 19%
    13:00 +19°C° 0 mm 2 mps 634 mmHg 17%
    14:00 +20°C° 0 mm 3 mps 633 mmHg 15%
    15:00 +19°C° 0 mm 3 mps 633 mmHg 18%
    16:00 +18°C° 0 mm 2 mps 632 mmHg 20%
    17:00 +16°C° 0 mm 2 mps 632 mmHg 22%
    18:00 +14°C° 0 mm 2 mps 631 mmHg 26%
    19:00 +12°C° 0 mm 1 mps 631 mmHg 30%
    20:00 +9°C° 0 mm 1 mps 630 mmHg 34%
    21:00 +9°C° 0 mm 1 mps 630 mmHg 36%
    22:00 +8°C° 0 mm 1 mps 630 mmHg 39%
    23:00 +8°C° 0 mm 1 mps 630 mmHg 41%

    19 July, Friday

    Time Temperature Precipitation Wind Pressure Humidity
    00:00 +8°C° 0 mm 1 mps 629 mmHg 42%
    01:00 +6°C° 0 mm 0 mps 629 mmHg 43%
    02:00 +5°C° 0 mm 0 mps 628 mmHg 44%
    03:00 +5°C° 0 mm 0 mps 628 mmHg 47%
    04:00 +5°C° 0 mm 0 mps 628 mmHg 50%
    05:00 +4°C° 0 mm 0 mps 628 mmHg 53%
    06:00 +5°C° 0 mm 0 mps 629 mmHg 48%
    07:00 +6°C° 0 mm 0 mps 630 mmHg 43%
    08:00 +8°C° 0 mm 0 mps 630 mmHg 38%
    09:00 +11°C° 0 mm 1 mps 631 mmHg 31%
    10:00 +14°C° 0 mm 2 mps 632 mmHg 24%
    11:00 +17°C° 0 mm 3 mps 632 mmHg 17%
    12:00 +18°C° 0 mm 4 mps 632 mmHg 19%
    13:00 +17°C° 0 mm 5 mps 632 mmHg 21%
    14:00 +19°C° 0 mm 5 mps 631 mmHg 23%
    15:00 +18°C° 0 mm 4 mps 631 mmHg 27%
    16:00 +17°C° 0 mm 4 mps 631 mmHg 31%
    17:00 +16°C° 0 mm 3 mps 631 mmHg 35%
    18:00 +14°C° 0 mm 2 mps 630 mmHg 43%
    19:00 +12°C° 0 mm 2 mps 630 mmHg 51%
    20:00 +9°C° 0 mm 1 mps 629 mmHg 59%
    21:00 +9°C° 0 mm 1 mps 629 mmHg 63%
    22:00 +8°C° 0 mm 1 mps 629 mmHg 66%
    23:00 +7°C° 0 mm 1 mps 629 mmHg 70%

    20 July, Saturday

    Time Temperature Precipitation Wind Pressure Humidity
    00:00 +7°C° 0 mm 1 mps 629 mmHg 72%
    01:00 +6°C° 0 mm 1 mps 628 mmHg 74%
    02:00 +6°C° 0 mm 1 mps 628 mmHg 76%
    03:00 +5°C° 0 mm 1 mps 628 mmHg 76%
    04:00 +5°C° 0 mm 1 mps 627 mmHg 76%
    05:00 +4°C° 0 mm 1 mps 627 mmHg 77%
    06:00 +5°C° 0 mm 1 mps 628 mmHg 71%
    07:00 +6°C° 0 mm 1 mps 629 mmHg 66%
    08:00 +7°C° 0 mm 1 mps 630 mmHg 61%
    09:00 +9°C° 0 mm 2 mps 631 mmHg 49%
    10:00 +12°C° 0 mm 3 mps 631 mmHg 37%
    11:00 +14°C° 0 mm 4 mps 632 mmHg 26%
    12:00 +15°C° 0 mm 5 mps 632 mmHg 23%
    13:00 +16°C° 0 mm 6 mps 632 mmHg 21%
    14:00 +17°C° 0 mm 6 mps 632 mmHg 18%
    15:00 +15°C° 0 mm 5 mps 631 mmHg 20%
    16:00 +14°C° 0 mm 5 mps 631 mmHg 22%
    17:00 +13°C° 0 mm 4 mps 631 mmHg 24%
    18:00 +11°C° 0 mm 3 mps 631 mmHg 31%
    19:00 +8°C° 0 mm 2 mps 630 mmHg 39%
    20:00 +6°C° 0 mm 1 mps 630 mmHg 46%
    21:00 +6°C° 0 mm 1 mps 630 mmHg 50%
    22:00 +5°C° 0 mm 1 mps 630 mmHg 54%
    23:00 +3°C° 0 mm 0 mps 630 mmHg 59%
    Show more